Location: Yecla
(38.6122°N, 1.1101°W)
Time: 12:07:13
(UTC+02:00)

ISS - Pass Details

Date: 25 March 2019
Orbit: 408 x 410 km, 51.6° (Epoch: 25 April)

Event Time Altitude Azimuth Distance (km) Brightness Sun altitude
Rises 20:09:15 0° 259° (W) 2,326 1.5 -10.2°
Reaches altitude 10° 20:11:34 10° 273° (W) 1,468 0.5 -10.7°
Maximum altitude 20:14:22 25° 331° (NNW) 861 -1.7 -11.2°
Drops below altitude 10° 20:17:11 10° 30° (NNE) 1,471 -1.2 -11.7°
Enters shadow 20:18:44 - 41° (NE) 2,040 -0.5 -12.0°
